#timestamp,LO_Frequency,Hit,StdDev 
1593489615.4,286046982.3,Y
1593489635.2,286046998.1,P
1593489655.1,286046997.0,N
1593489656.0,286046997.0,N
1593489675.8,286046997.0,N
1593489695.7,286046995.1,N
1593489715.5,286046995.0,N
1593489735.4,286046999.1,N
1593489755.2,286046995.3,N
1593489775.0,286046995.8,N
1593489775.9,286046995.8,N
1593489795.8,286046995.2,N
1593489815.6,286046995.4,N
1593489835.5,286046996.0,N
1593489855.3,286046997.7,N
1593489875.1,286046999.2,N
1593489895.9,286046996.6,N
1593489915.7,286046995.2,N
1593489935.6,286046992.4,Y
1593489955.4,286046998.8,P
1593489975.2,286047002.3,N
1593489995.1,286047004.1,N
1593489996.0,286047004.1,N
1593490015.8,286047003.6,N
1593490035.7,286047009.1,Y
1593490055.5,286047005.9,P
1593490075.3,286047001.5,N
1593490095.2,286047002.8,N
1593490115.0,286046997.7,N
1593490115.9,286046997.7,N
1593490135.7,286047004.3,N
1593490155.6,286047004.4,N
1593490175.4,286047004.2,N
1593490195.3,286047000.4,N
1593490215.1,286047002.3,N
1593490216.0,286047002.3,N
1593490235.8,286047000.6,N
1593490255.7,286047002.8,N
1593490275.5,286047004.3,N
1593490295.4,286047000.4,N
1593490315.2,286047001.2,N
1593490335.0,286047001.9,N
1593490335.9,286047001.9,N
1593490355.8,286047000.2,N
1593490375.6,286046999.5,N
1593490395.5,286046998.2,N
1593490415.3,286046998.6,N
1593490435.1,286046996.6,N
1593490455.9,286046997.4,N
1593490475.7,286046998.3,N
1593490495.5,286046996.7,N
1593490515.4,286046996.4,N
1593490535.2,286046993.7,N
1593490555.1,286046993.7,N
1593490556.0,286046993.7,N
1593490575.8,286046994.0,N
1593490595.6,286046994.1,N
1593490615.5,286046993.6,N
1593490635.3,286046994.2,N
1593490655.1,286046996.0,N
1593490675.9,286046993.4,N
1593490695.7,286046996.2,N
1593490715.6,286046994.7,N
1593490735.4,286046994.6,N
1593490755.2,286046990.5,N
1593490775.1,286046992.6,N
1593490776.0,286046992.6,N
1593490795.8,286046992.7,N
1593490815.7,286046994.4,N
1593490835.5,286046993.4,N
1593490855.3,286046997.3,N
1593490875.2,286046999.2,N
1593490895.9,286046996.8,N
1593490915.7,286046996.6,N
1593490935.6,286046996.8,N
1593490955.4,286046997.8,N
1593490975.3,286046997.9,N
1593490995.1,286046998.3,N
1593490996.0,286046998.3,N
1593491015.8,286046997.4,N
1593491035.7,286046996.7,N
1593491055.5,286046996.5,N
1593491075.3,286046999.3,N
1593491095.2,286047000.5,N
1593491115.0,286047000.8,N
1593491115.9,286047000.8,N
1593491135.8,286046997.5,N
1593491155.6,286046995.8,N
1593491175.4,286046994.9,N
1593491195.3,286046997.4,N
1593491215.1,286046997.3,N
1593491235.9,286046997.6,N
1593491255.7,286046999.1,N
1593491275.5,286046995.1,N
1593491295.4,286046994.0,N
1593491315.2,286046993.6,N
1593491335.1,286046996.1,N
1593491336.0,286046996.1,N
1593491355.8,286046995.5,N
1593491375.6,286046997.8,N
1593491395.5,286046993.4,Y
1593491415.3,286046996.6,P
1593491435.2,286046997.7,P
1593491455.9,286046998.6,P
1593491475.7,286046997.4,Y
1593491495.6,286046998.8,P
1593491515.4,286047001.1,N
1593491535.2,286046999.1,N
1593491555.1,286046999.5,N
1593491556.0,286046999.5,N
1593491575.8,286046999.2,N
1593491595.7,286046998.7,N
1593491615.5,286046997.0,Y
1593491635.3,286046999.0,P
1593491655.2,286046998.4,P
1593491675.0,286046999.1,N
1593491675.9,286046999.1,Y
1593491695.8,286046998.9,P
1593491715.6,286047000.5,P
1593491735.4,286047000.8,N
1593491755.3,286047000.8,N
1593491775.1,286046999.7,N
1593491795.9,286047000.4,N
1593491815.7,286047000.5,N
1593491835.5,286047001.1,N
1593491855.4,286047001.0,N
1593491875.2,286047000.3,N
1593491895.0,286047000.3,N
1593491895.9,286047000.3,N
1593491915.8,286047000.8,N
1593491935.6,286047002.5,Y
1593491955.5,286047004.1,P
1593491975.3,286047003.9,N
1593491995.1,286047001.9,N
1593492015.9,286047001.8,N
1593492035.7,286047000.7,N
1593492055.6,286047000.3,N
1593492075.4,286046999.7,N
1593492095.2,286047002.4,N
1593492115.1,286047002.3,N
1593492116.0,286047002.3,N
1593492135.8,286047002.3,N
1593492155.6,286046999.8,N
1593492175.5,286047000.1,N
1593492195.3,286046999.8,N
1593492215.2,286047002.1,N
1593492235.0,286047002.3,N
1593492235.9,286047002.3,N
1593492255.8,286047001.9,N
1593492275.6,286047004.4,Y
1593492295.4,286047000.1,P
1593492315.3,286046998.5,N
1593492335.1,286047001.0,N
1593492355.8,286046998.5,N
1593492375.7,286047002.4,N
1593492395.5,286047002.4,N
1593492415.4,286046998.2,N
1593492435.2,286046999.0,N
1593492455.0,286047000.8,N
1593492455.9,286047000.8,N
1593492475.8,286047000.8,N
1593492495.6,286047000.5,N
1593492515.5,286047000.7,N
1593492535.3,286047000.9,N
1593492555.1,286047000.2,N
1593492575.9,286047000.2,N
1593492595.7,286047000.6,N
1593492615.6,286047001.1,N
1593492635.4,286047000.8,N
1593492655.2,286047000.8,N
1593492675.1,286047001.2,N
1593492676.0,286047001.2,N
1593492695.8,286046998.4,N
1593492715.7,286047001.1,N
1593492735.5,286047002.8,N
1593492755.4,286047000.1,N
1593492775.2,286047000.6,N
1593492795.0,286047002.2,N
1593492795.9,286047002.2,N
1593492815.8,286047002.4,N
1593492835.6,286047002.8,N
1593492855.4,286047000.9,N
1593492875.3,286047001.0,N
1593492895.1,286047000.6,N
1593492915.9,286046998.4,N
1593492935.7,286047000.7,N
1593492955.5,286047001.1,N
1593492975.4,286047002.5,N
1593492995.2,286047000.4,N
1593493015.1,286047002.4,N
1593493016.0,286047002.4,N
1593493035.8,286047002.1,N
1593493055.6,286047001.0,N
1593493075.5,286046999.8,N
1593493095.3,286047000.4,N
1593493115.2,286046999.7,N
1593493135.9,286047000.2,N
1593493155.7,286047002.8,N
1593493175.6,286046998.7,N
1593493195.4,286047000.5,N
